Home   Weather   Fairfield   Past weeks
Flag for USA

Past Weather in Fairfield, North Carolina, USA — Yesterday and Last 2 Weeks

Now
79 °F

Partly cloudy.


Feels Like: 81 °F
Forecast: 89 / 71 °F
Wind: 6 mph from Southeast

Location: Piedmont Triad International Airport

Current Time: Jul 4, 2020 at 9:34:32 pm

Latest Report: Jul 4, 2020 at 8:54 pm


Visibility: 10 mi

Pressure: 29.89 "Hg

Humidity: 62%

Dew Point: 65 °F

Location of FairfieldLocation

Past Weather in Fairfield — Graph

°F

Fairfield Temperature Yesterday

Maximum temperature yesterday: 92 °F (at 5:54 pm)
Minimum temperature yesterday: 67 °F (at 5:54 am)
Average temperature yesterday: 81 °F

High & Low Weather Summary for the Past Weeks

 TemperatureHumidityPressure
High92 °F (Jul 3, 5:54 pm)100% (Jun 20, 5:54 am)30.14 "Hg (Jun 20, 5:54 am)
Low63 °F (Jun 20, 5:54 am)31% (Jul 3, 5:54 pm)29.75 "Hg (Jun 23, 4:54 pm)
Average77 °F71%29.93 "Hg
* Reported Jun 19 7:17 pm — Jul 4 7:54 pm, Fairfield. Weather by CustomWeather, © 2020

Note: Actual official high and low records may vary slightly from our data, if they occured in-between our weather recording intervals... More about our weather records

Fairfield Weather History for the Previous 24 Hours

Scroll right to see more
 ConditionsComfort  
Time TempWeatherWind HumidityBarometerVisibility
7:54 pm
Sat, Jul 4
80 °FScattered clouds.10 mph60%29.89 "Hg10 mi
6:54 pm86 °FThundershowers. Broken clouds.3 mph57%29.87 "Hg10 mi
5:54 pm87 °FBroken clouds.7 mph55%29.87 "Hg10 mi
4:54 pm87 °FPartly sunny.10 mph55%29.88 "Hg10 mi
3:54 pm91 °FBroken clouds.3 mph44%29.89 "Hg10 mi
2:54 pm91 °FScattered clouds.6 mph44%29.90 "Hg10 mi
1:54 pm91 °FScattered clouds.8 mph44%29.91 "Hg10 mi
12:54 pm91 °FPassing clouds.6 mph44%29.93 "Hg10 mi
11:54 am90 °FPassing clouds.6 mph47%29.94 "Hg10 mi
10:54 am87 °FScattered clouds.5 mph53%29.93 "Hg10 mi
9:54 am85 °FPartly sunny.6 mph55%29.93 "Hg10 mi
8:54 am81 °FPartly sunny.5 mph65%29.92 "Hg10 mi
7:54 am77 °FPartly sunny.3 mph74%29.91 "Hg10 mi
6:54 am74 °FPartly sunny.No wind82%29.91 "Hg10 mi
5:54 am74 °FPassing clouds.No wind76%29.90 "Hg10 mi
4:54 am71 °FPassing clouds.3 mph81%29.90 "Hg10 mi
3:54 am73 °FPartly cloudy.6 mph79%29.90 "Hg10 mi
2:54 am75 °FPassing clouds.No wind71%29.91 "Hg10 mi
1:54 am74 °FPassing clouds.6 mph76%29.91 "Hg10 mi
12:54 am75 °FPassing clouds.3 mph74%29.92 "Hg10 mi
11:54 pm
Fri, Jul 3
77 °FClear.3 mph69%29.93 "Hg10 mi
10:54 pm78 °FClear.5 mph64%29.92 "Hg10 mi
9:54 pm79 °FClear.3 mph60%29.90 "Hg10 mi
Weather by CustomWeather, © 2020

See weather overview